Lapse_Rate
8.1 8.1 8.4 9.0 8.0 8.0 8.1 8.8 8.5 8.3 8.4 8.6 9.2 9.1 8.9 8.3 7.8 7.8 6.7 6.6 6.7 6.7 7.7 8.2 8.2 7.5 7.4 7.2 6.5 6.9 6.8 6.8 6.5 6.5 6.5 6.5 6.5 6.5 6.5 6.5 6.5 6.5 6.5 6.5 6.5 6.5 6.5 6.5 6.5 6.5 6.5 5.9 6.0 5.4
7.6 8.0 8.2 8.0 7.3 7.2 7.5 8.1 8.3 7.8 7.9 8.3 8.6 9.2 9.3 8.8 8.1 8.0 6.6 7.4 7.0 6.6 6.9 8.2 8.8 8.9 8.6 8.4 7.6 7.5 6.9 6.8 6.8 6.5 6.5 6.5 6.5 6.5 6.5 6.5 6.5 6.5 6.5 6.5 6.5 6.5 6.5 6.8 6.6 6.6 5.8 6.7 5.5 4.8
7.3 7.8 8.0 7.4 6.8 7.0 7.3 7.6 8.3 7.8 8.1 8.2 8.3 8.4 9.0 9.1 8.2 7.9 6.7 6.9 6.5 6.5 6.8 7.3 7.6 7.2 9.1 8.0 8.9 7.2 7.5 7.8 7.4 7.9 6.6 6.5 6.5 6.5 6.5 6.5 6.5 6.5 6.5 6.5 6.5 6.5 6.5 6.7 6.7 4.6 4.6 5.2 2.3 4.3
7.1 7.0 7.3 7.0 6.5 6.8 7.0 7.6 7.8 8.1 8.3 8.4 8.3 8.4 8.0 8.3 8.0 8.0 6.4 6.8 7.4 6.5 6.7 7.2 8.9 8.5 8.8 9.1 8.7 8.7 8.5 8.5 8.2 7.6 6.6 6.5 6.5 6.6 6.5 6.5 6.5 6.5 6.5 6.5 6.5 6.5 6.6 6.6 6.7 5.0 2.8 2.1 2.9 1.8
7.0 6.8 6.8 6.7 6.4 6.7 6.9 7.4 7.6 7.5 7.9 8.1 8.0 7.8 8.1 8.2 8.1 7.3 6.0 6.3 6.3 6.2 6.6 7.0 8.1 7.3 7.2 8.7 8.6 8.7 8.7 8.2 7.3 6.6 6.5 6.5 6.5 6.6 6.5 6.5 6.5 6.5 6.5 6.5 6.5 6.5 6.5 6.7 6.2 4.9 4.5 3.1 3.1 2.9
6.9 6.8 6.7 6.4 6.3 6.5 6.8 7.7 7.5 7.8 8.3 7.9 8.2 8.0 8.3 8.3 8.0 8.3 7.9 7.0 6.9 6.1 7.0 6.5 7.8 7.5 7.8 8.3 8.2 8.2 8.3 8.0 7.2 6.8 6.5 6.8 7.6 6.6 6.5 6.5 6.5 7.1 7.3 7.5 6.5 7.6 7.3 5.4 2.1 2.6 3.4 2.6 2.9 3.2
6.5 6.5 6.4 6.2 6.2 6.3 6.5 7.1 7.7 8.1 8.1 8.1 8.2 8.0 8.1 8.0 7.9 8.2 7.7 8.1 7.6 7.2 6.9 6.5 6.5 6.1 4.2 5.9 7.4 7.6 7.9 7.4 7.1 6.7 6.5 6.6 6.8 6.7 6.5 6.5 6.5 7.2 7.5 7.5 7.7 7.1 6.4 5.2 6.3 4.7 3.6 4.6 5.2 4.5
6.3 6.4 6.2 6.0 6.0 6.2 6.4 6.6 8.1 7.9 7.9 7.6 7.2 7.1 7.4 8.0 8.0 7.0 8.1 8.3 8.4 7.8 6.9 6.5 6.5 6.2 6.2 7.0 6.7 6.4 6.7 6.6 6.3 6.6 6.8 6.5 6.6 6.5 6.5 6.5 7.2 7.4 7.7 7.1 7.2 7.3 6.9 5.7 5.1 5.3 2.8 2.9 4.1 5.7
6.1 6.0 5.8 5.8 5.8 5.9 5.8 6.4 8.1 7.6 5.6 6.5 6.8 8.1 7.9 8.1 7.5 7.1 7.1 7.2 7.4 7.3 6.6 6.6 6.5 6.5 6.6 7.1 7.2 6.7 6.1 6.5 6.2 6.5 6.5 6.7 6.5 6.5 6.5 6.7 7.1 7.3 7.1 7.1 7.3 7.5 6.7 6.7 6.6 6.4 6.4 4.9 4.0 6.3
5.9 5.6 5.4 5.4 5.4 5.5 5.2 6.5 7.9 5.9 5.4 5.9 6.2 6.7 7.3 6.4 6.3 6.4 7.1 6.5 5.9 5.5 6.5 6.5 7.0 6.5 7.0 6.9 6.5 6.5 6.8 6.5 6.5 6.5 6.9 6.5 6.5 6.9 7.2 7.5 7.4 7.3 7.2 7.2 7.0 6.9 6.7 6.8 6.6 6.5 6.5 6.5 5.9 6.6
5.2 5.2 5.3 5.4 5.1 4.9 5.3 5.8 7.4 4.8 5.7 6.6 6.6 6.7 5.6 5.4 6.4 6.6 6.8 6.7 6.8 6.5 7.0 7.0 7.0 6.5 7.5 6.5 6.5 6.7 6.5 6.5 6.5 6.5 6.5 6.5 6.5 6.5 7.3 7.2 7.2 7.0 7.0 6.9 6.8 6.4 6.0 5.6 5.6 5.5 5.9 6.4 6.1 5.4
5.0 5.2 5.0 4.9 4.8 5.0 4.7 5.7 5.6 4.9 5.6 6.2 6.1 6.5 5.7 6.1 6.8 6.6 6.5 6.6 6.5 6.5 6.9 6.6 6.9 7.2 7.3 7.3 6.6 6.6 6.5 6.5 6.5 6.6 6.5 6.5 6.5 7.0 7.1 7.1 7.2 6.9 7.0 6.4 6.2 6.3 6.3 6.4 6.2 6.1 6.0 5.7 5.4 4.7
4.9 4.8 4.7 4.6 4.7 4.7 4.5 4.6 4.8 4.7 4.5 5.5 5.2 5.9 6.7 6.7 6.5 6.5 6.5 6.5 6.5 6.7 6.9 7.1 6.6 7.1 7.2 7.0 6.5 6.5 6.5 6.5 6.6 6.5 6.5 6.5 6.8 7.1 7.1 6.8 7.0 6.9 6.6 6.7 6.6 6.3 6.0 5.9 5.5 4.8 4.6 4.4 4.1 4.0
4.3 4.5 4.3 4.6 4.6 4.0 4.2 4.1 3.9 3.9 4.8 4.5 6.3 6.5 6.5 6.5 6.5 6.5 6.5 6.5 7.1 7.1 7.2 7.2 6.8 6.6 6.9 6.5 6.5 6.5 6.5 6.5 6.5 6.5 6.5 6.5 6.9 7.0 6.9 6.2 5.8 6.2 6.0 5.6 5.2 4.8 4.5 4.3 4.3 4.2 4.2 4.1 4.0 4.3
4.4 4.4 4.1 4.6 3.7 3.8 3.1 2.7 3.1 3.4 3.6 5.2 6.4 6.5 6.5 7.0 7.2 7.2 7.4 7.3 7.6 7.7 7.3 7.0 6.9 6.9 6.5 6.5 6.5 6.5 6.5 6.5 6.5 6.5 6.5 6.9 7.1 6.8 6.4 5.8 4.8 4.6 4.4 4.2 4.2 4.0 4.0 3.8 3.7 3.9 4.0 4.0 3.9 3.9
4.9 4.2 4.3 3.4 3.2 2.9 2.2 1.6 2.5 2.6 2.7 5.6 6.6 6.6 7.1 6.7 6.7 7.1 7.2 7.1 7.8 7.6 7.5 7.2 6.5 6.5 6.5 6.5 6.5 6.5 6.5 6.5 6.5 6.5 7.1 7.3 7.1 6.7 6.0 5.4 5.0 4.4 4.2 4.1 3.7 3.6 3.3 3.1 3.1 3.3 3.4 3.6 4.0 4.2
4.8 4.3 3.8 3.0 2.3 1.8 -0.4 2.4 2.8 2.0 4.5 6.7 6.8 7.5 7.3 7.1 6.9 7.2 7.5 7.5 8.0 7.3 6.5 6.5 6.5 6.5 6.5 6.5 6.5 6.5 6.5 6.5 6.9 7.2 7.5 7.2 6.9 6.5 6.1 5.4 4.9 4.5 4.2 4.0 3.9 3.8 3.9 4.1 4.0 3.5 2.8 3.1 3.0 2.7
4.2 3.7 3.1 2.2 1.9 0.9 -0.7 -0.7 2.4 4.8 6.7 6.1 6.7 7.1 7.5 7.6 7.4 7.6 7.8 8.0 7.5 7.3 7.1 6.6 7.0 6.5 6.5 6.5 6.5 6.5 7.0 7.3 7.5 7.5 7.5 7.0 6.7 6.2 5.8 5.6 5.2 5.1 5.0 4.7 4.7 4.6 4.7 4.6 4.1 3.8 3.7 3.8 3.7 3.6
3.5 2.6 1.8 1.8 1.1 1.0 2.9 1.7 0.8 6.6 6.3 5.8 6.3 6.4 7.3 7.7 7.8 7.5 7.3 7.5 6.8 7.5 7.5 7.0 6.5 6.5 6.5 6.8 6.8 7.1 7.3 7.4 7.3 7.5 7.6 6.7 6.1 5.9 5.9 5.6 5.5 5.2 4.6 4.7 4.8 4.5 4.2 3.4 4.3 4.9 5.1 5.6 4.9 5.1
1.2 0.8 2.0 0.3 0.9 3.6 3.9 2.4 2.3 5.8 6.9 6.0 6.2 6.8 7.2 6.7 6.2 6.1 6.6 5.9 7.7 7.5 6.8 6.5 6.5 7.0 7.1 7.4 7.7 7.7 7.7 7.6 7.7 7.4 7.5 7.4 6.8 6.5 6.1 6.2 6.3 6.5 6.6 6.6 7.1 6.9 6.5 5.9 5.5 5.6 6.5 6.5 6.2 5.7
-0.7 -0.3 -0.4 0.3 -0.6 -1.3 0.1 1.5 4.7 3.8 4.3 6.9 5.3 6.0 7.1 6.2 6.1 6.1 6.0 7.0 7.3 7.0 6.7 7.3 7.4 7.7 7.0 6.6 6.5 6.0 6.5 5.8 6.7 7.7 7.6 7.6 7.2 7.2 7.1 6.8 6.5 6.6 6.8 7.0 6.8 6.9 6.8 6.3 6.2 6.2 6.6 6.4 6.1 6.1
-0.3 -0.3 0.1 0.1 1.6 1.6 1.5 0.6 2.7 3.5 5.1 5.0 6.1 6.3 6.9 6.8 7.0 7.1 5.6 7.1 7.1 7.3 7.5 7.5 7.4 6.8 7.6 6.1 5.5 5.2 4.8 5.4 6.0 6.4 6.9 6.6 6.4 6.5 6.2 6.2 7.0 6.7 6.2 6.2 6.8 7.2 7.6 7.4 6.9 6.4 6.4 6.1 6.3 6.5
-1.2 -0.5 -1.0 -0.4 2.1 3.1 4.0 2.4 5.2 3.6 6.5 6.6 6.8 6.6 6.7 6.8 7.2 6.3 6.9 7.3 7.5 7.3 6.9 6.5 5.8 5.9 6.5 6.2 5.7 5.2 4.6 4.8 5.8 5.4 5.2 6.3 5.9 5.6 5.7 5.2 5.5 6.0 6.6 6.0 6.1 6.3 6.2 7.8 7.0 6.2 6.3 6.2 6.2 6.3
-3.3 -4.6 -2.4 0.0 2.4 5.3 3.6 4.2 4.9 6.0 6.5 6.6 6.5 6.5 6.6 6.9 7.0 6.9 6.5 7.0 7.5 7.3 6.4 5.3 5.9 6.5 7.3 6.8 6.5 5.8 4.7 4.7 5.6 5.8 4.7 5.2 6.0 5.3 5.0 5.0 5.1 5.2 5.2 5.7 5.9 6.0 5.9 5.9 6.7 6.2 6.0 6.1 6.3 6.1
1.1 1.2 1.6 5.1 3.7 5.6 6.5 6.5 6.5 6.6 6.5 6.5 6.5 6.5 6.6 7.0 6.5 6.5 6.5 7.0 7.4 7.5 5.9 5.6 5.9 6.1 6.9 6.7 6.5 6.2 5.2 4.5 4.5 4.7 5.4 4.8 4.9 5.9 6.2 6.0 5.6 5.3 5.2 5.5 5.6 5.7 5.8 5.7 5.8 5.5 5.8 6.5 7.2 5.6
6.5 2.4 5.4 6.1 6.1 6.5 6.5 6.5 6.5 6.5 6.5 6.5 6.5 6.9 7.0 6.6 6.5 6.5 6.6 6.6 6.4 5.6 5.3 5.1 4.9 5.1 6.0 6.2 5.6 5.6 5.3 4.6 4.1 5.2 5.7 5.0 5.0 5.4 5.7 6.1 6.5 6.6 5.9 5.6 5.7 5.8 6.1 6.2 6.3 5.2 6.1 5.5 6.8 5.2
6.5 6.1 4.8 4.3 5.3 6.3 6.8 7.1 7.0 6.7 6.5 6.5 6.5 6.6 6.5 6.5 6.5 6.6 6.0 5.1 5.4 5.1 4.3 3.9 3.8 4.1 4.6 4.6 4.9 5.0 4.7 4.3 4.0 3.8 3.9 4.3 5.2 5.1 5.5 5.7 5.7 6.4 6.3 6.3 6.3 6.6 6.6 6.6 6.6 6.5 6.2 6.2 6.0 5.2
3.3 3.5 6.4 4.4 4.4 4.3 6.3 6.4 6.5 6.5 6.5 6.7 6.9 6.5 6.5 6.5 6.5 6.1 5.1 3.9 2.6 2.1 2.2 2.6 3.1 3.1 3.3 3.5 3.2 2.9 2.9 3.4 3.1 3.5 3.8 4.0 4.4 5.2 5.4 5.3 5.3 7.0 7.4 5.9 7.2 7.6 7.5 7.4 7.5 7.2 6.3 5.4 4.8 4.6
4.2 2.7 3.4 2.4 2.7 5.0 5.1 6.2 6.4 5.9 4.9 5.4 6.6 6.5 6.5 5.4 4.1 4.1 4.0 2.2 0.4 0.6 2.1 2.9 3.3 1.8 1.4 2.6 2.9 2.7 2.6 2.6 2.9 2.8 3.6 5.0 5.7 5.7 4.5 4.4 4.4 4.7 5.1 5.1 6.7 7.7 7.7 7.7 7.8 6.8 3.8 3.3 2.9 2.4
2.8 1.0 4.8 2.7 5.4 6.5 4.9 2.8 3.9 1.8 2.7 3.8 3.7 3.7 3.4 2.9 2.5 0.2 0.6 1.8 2.2 2.2 1.5 0.5 0.4 0.2 1.2 1.3 1.5 1.8 3.0 2.1 2.4 3.5 4.2 4.3 4.8 4.2 3.7 3.5 3.7 4.2 4.9 5.1 4.9 4.6 6.3 6.1 4.7 3.0 2.6 2.3 2.7 2.6
1.1 1.8 3.5 4.3 5.4 3.7 0.6 -1.2 -1.3 1.1 1.7 1.4 0.5 2.5 3.8 2.1 1.4 0.8 0.5 0.8 0.6 0.7 2.2 3.6 3.1 2.6 2.0 3.3 3.3 3.1 3.0 3.0 1.4 2.0 2.7 3.0 2.8 3.0 3.4 3.8 4.1 4.4 4.8 4.8 4.9 4.7 4.2 4.0 3.7 3.0 2.7 1.7 1.2 3.0
2.4 2.0 4.0 6.4 4.8 0.5 -0.9 0.7 1.6 2.9 2.2 2.3 3.1 -0.4 1.3 2.3 3.1 4.1 0.7 -0.0 2.7 3.9 4.7 3.6 2.9 3.2 3.5 3.0 2.4 2.5 4.2 3.0 2.9 3.1 3.0 2.9 3.0 3.6 4.2 4.6 4.6 4.6 4.8 5.0 5.4 5.1 4.4 3.2 3.2 3.4 3.8 2.7 3.0 2.5
-0.4 -0.5 -0.6 2.0 3.0 3.7 2.5 1.4 3.9 3.7 2.8 4.2 4.2 2.1 1.8 2.3 3.5 3.9 -0.1 -1.0 1.6 2.5 2.5 1.8 1.8 2.3 2.7 1.7 1.6 1.6 3.0 2.0 0.9 5.0 6.5 7.3 8.0 9.1 8.8 7.4 5.9 5.3 5.6 5.4 5.5 5.7 5.1 4.3 4.0 4.0 4.5 4.3 4.2 4.2
Wind_Speed
34 33 31 30 31 31 32 34 35 35 34 33 33 31 32 34 17 10 1 10 5 3 13 16 19 16 12 11 12 13 11 5 5 5 4 5 5 6 7 7 5 11 9 7 6 5 11 8 6 10 5 2 2 1
34 31 30 29 30 31 32 33 34 34 35 35 31 30 30 29 29 17 3 7 8 4 6 11 14 15 20 22 14 10 12 15 5 5 5 4 9 4 4 5 7 2 2 3 8 6 9 9 5 9 2 2 1 4
33 31 29 28 30 31 33 34 35 34 36 34 33 29 26 26 27 17 3 4 3 3 7 12 15 20 18 19 16 11 10 13 14 12 8 5 8 4 6 12 10 4 5 5 10 9 14 5 5 2 4 2 4 3
31 30 28 29 29 31 33 34 35 35 36 38 34 31 27 23 20 18 3 4 5 1 3 9 5 12 11 14 19 20 21 16 14 6 7 5 8 5 5 6 10 9 12 8 10 14 17 14 11 7 5 5 5 10
29 28 28 29 30 32 33 34 35 36 36 37 36 27 27 23 19 11 5 3 1 2 3 7 13 19 18 14 17 17 17 16 8 5 5 7 7 8 10 8 12 9 12 8 13 14 12 15 12 6 8 9 11 11
29 27 29 30 31 32 33 34 35 34 36 38 33 31 28 23 14 4 2 2 4 3 3 4 4 11 9 10 16 17 13 12 8 3 5 6 16 6 5 9 9 15 16 13 9 18 14 10 7 10 4 8 9 13
28 28 29 31 32 33 34 34 34 34 40 38 36 33 26 19 5 3 2 2 2 2 2 5 4 2 2 3 2 4 8 5 5 5 6 9 9 4 4 11 21 20 19 20 15 14 7 4 6 2 11 13 15 15
26 28 30 31 33 34 35 35 33 38 40 40 37 28 19 10 7 3 2 12 6 2 1 4 4 3 3 3 2 2 3 3 5 5 3 4 4 5 4 17 18 18 19 11 16 11 10 6 1 4 12 16 16 13
26 27 29 32 34 35 35 33 35 37 40 37 28 11 2 2 2 3 18 17 4 5 3 3 4 6 1 2 3 2 3 4 4 4 3 2 6 7 13 20 20 18 14 19 18 11 7 4 2 3 5 13 19 14
26 27 30 32 33 35 35 32 38 38 35 23 8 4 3 2 16 12 1 1 3 3 3 3 2 4 4 4 3 3 2 2 2 5 4 4 3 8 14 15 14 16 15 14 12 8 3 4 6 8 7 6 14 13
28 29 31 33 33 34 30 35 37 33 9 4 4 2 3 12 2 1 3 3 4 2 4 4 4 7 3 5 4 2 3 3 2 5 3 3 5 16 17 16 14 13 12 11 8 9 8 9 11 13 14 12 13 16
27 30 32 32 32 27 35 34 35 10 4 7 4 4 2 3 2 4 4 3 4 5 6 5 6 7 5 3 3 2 3 4 5 3 4 3 8 18 15 15 14 12 10 13 14 14 14 13 12 14 14 14 13 15
29 31 32 33 27 29 35 36 29 20 9 1 1 2 3 3 6 6 8 3 6 6 3 9 8 5 4 3 3 3 5 5 2 4 3 3 11 15 14 12 12 13 13 13 14 15 16 17 16 16 15 13 14 13
31 33 34 26 20 33 33 33 23 10 2 2 4 5 5 3 4 2 7 8 7 7 10 9 5 3 2 4 4 5 4 4 4 4 4 6 14 14 13 11 10 14 14 15 15 14 15 16 15 14 13 11 11 11
31 34 29 9 32 30 33 24 15 3 2 2 2 2 2 2 2 4 5 7 7 6 7 6 5 3 4 4 4 4 4 5 5 4 4 8 11 10 11 12 12 12 11 12 11 12 13 13 13 14 12 10 10 10
31 28 3 31 30 32 27 16 3 1 2 1 3 1 4 1 2 5 7 7 5 7 4 3 4 2 6 3 5 7 3 4 4 4 6 7 9 9 9 9 9 9 10 9 10 10 10 11 10 9 10 10 9 9
25 3 21 31 29 26 12 3 1 4 3 2 2 2 2 2 4 7 7 6 8 5 3 2 5 4 3 3 4 5 4 4 6 6 5 7 8 8 7 7 8 9 9 9 8 8 8 7 8 9 10 8 8 8
4 13 26 23 23 6 2 4 2 2 4 2 1 3 2 2 4 4 6 6 5 5 4 3 2 6 5 4 3 4 3 6 5 5 4 6 6 5 5 6 6 6 6 6 6 7 7 7 7 6 6 5 5 5
16 15 17 18 10 3 4 4 4 3 3 2 2 2 2 2 3 5 6 6 3 3 2 3 5 4 3 3 4 6 6 5 7 6 3 5 5 6 5 5 5 6 6 7 7 6 5 6 5 4 4 4 4 3
9 5 21 11 9 1 3 3 2 3 3 3 2 4 2 2 3 4 7 7 5 3 6 5 4 3 3 4 5 6 6 7 6 5 3 4 5 5 7 5 4 4 4 5 4 7 4 5 4 4 3 4 4 4
8 9 12 7 3 5 4 4 2 2 3 2 3 3 2 2 3 6 5 6 5 4 3 3 3 3 4 4 5 5 5 6 6 5 4 3 4 5 5 5 5 5 5 5 5 6 7 5 4 4 4 4 4 3
3 11 3 5 3 3 4 3 2 3 3 2 2 3 3 3 4 4 4 6 3 3 3 3 4 4 4 5 6 6 7 8 6 6 8 7 5 5 5 5 5 5 5 5 5 5 5 4 4 5 4 4 5 4
6 4 3 5 4 6 3 3 2 5 4 5 2 3 3 3 3 2 3 3 2 3 3 4 6 5 4 4 4 6 7 8 5 5 5 4 4 5 4 5 5 5 4 5 4 4 4 7 6 4 4 4 3 3
9 5 6 4 5 4 4 5 3 3 3 4 4 4 4 4 4 3 3 2 2 3 4 6 5 5 2 3 4 5 6 6 5 4 5 5 4 4 4 4 4 4 4 4 3 3 3 3 5 4 3 3 3 3
5 9 5 7 4 6 5 5 5 5 3 4 5 3 4 4 3 3 2 2 3 3 4 5 4 4 4 4 4 4 4 5 5 5 3 4 4 3 2 1 2 3 4 3 4 4 4 4 4 4 4 4 5 3
6 4 4 3 3 4 4 4 5 5 3 4 3 4 3 3 3 2 3 4 3 3 4 5 5 5 4 3 5 5 5 4 5 4 2 3 3 3 3 3 2 1 3 3 3 4 4 4 4 4 4 5 9 5
3 3 2 1 1 2 1 1 1 1 3 3 3 5 4 3 2 2 1 0 2 2 4 4 4 5 6 6 6 5 5 5 4 5 6 5 4 2 2 2 3 3 4 4 4 4 4 4 5 4 4 4 3 3
2 2 1 3 1 1 1 1 1 1 1 1 2 2 1 1 2 2 1 2 2 4 5 5 4 4 5 6 6 6 6 4 5 6 5 5 5 4 4 3 3 10 5 4 6 4 4 5 6 3 4 5 5 4
1 1 0 2 2 2 2 1 1 1 1 1 1 1 1 1 2 2 1 2 2 3 4 4 4 4 5 4 4 4 4 4 4 4 5 5 3 0 1 3 4 4 4 4 10 9 8 7 2 2 1 3 4 4
1 1 0 0 1 1 1 1 0 1 1 1 2 2 2 2 1 0 2 2 2 3 3 4 4 3 4 5 6 6 3 3 4 4 4 4 3 4 5 5 5 5 4 5 5 6 10 4 4 2 2 2 3 3
1 1 1 1 2 1 1 2 2 2 1 1 0 2 2 3 3 2 1 1 2 2 3 4 3 2 3 6 5 7 7 0 3 5 6 6 6 7 7 7 6 5 5 5 5 5 5 4 3 3 4 4 6 6
1 1 2 2 1 1 0 1 1 1 1 1 1 1 2 2 2 1 2 1 2 3 8 6 4 6 8 6 5 5 13 7 7 6 8 7 7 8 8 6 7 6 7 7 7 6 6 7 5 5 5 6 6 6
0 0 1 2 2 1 2 3 1 2 0 0 0 1 1 1 2 2 1 1 1 3 5 5 5 7 11 9 7 7 10 5 11 19 22 22 22 16 9 5 7 8 9 9 8 8 9 10 8 9 8 8 8 7
Wind_Direction
331 333 335 335 334 335 334 336 338 338 337 337 339 339 346 346 303 296 259 187 200 224 260 254 259 264 268 262 273 292 318 262 286 244 247 285 275 32 303 326 178 177 180 199 210 222 251 125 115 213 292 80 63 14
331 331 332 333 331 333 332 334 334 333 334 330 331 337 339 344 346 313 227 194 196 227 268 303 275 261 254 260 268 272 254 286 310 307 321 335 307 286 291 312 354 298 289 284 209 210 255 185 241 228 56 336 247 146
329 329 330 330 328 330 331 332 334 336 334 331 332 329 330 332 341 335 271 184 202 246 279 256 260 256 241 243 245 254 255 250 263 266 289 263 254 263 292 295 290 255 35 357 331 292 296 244 203 204 165 175 113 74
327 331 329 327 326 328 329 330 330 329 333 331 331 334 324 323 330 337 293 245 191 174 259 282 261 253 248 239 227 223 239 256 271 270 265 273 277 300 270 296 295 290 294 307 276 291 275 268 242 202 205 162 127 127
327 332 328 325 326 328 328 326 327 326 327 325 327 329 329 319 322 311 302 284 267 207 304 285 313 271 248 241 241 234 226 240 246 247 244 249 255 259 265 267 267 264 280 281 274 292 312 310 337 278 195 154 137 129
328 327 324 321 326 326 326 325 326 326 324 323 326 323 320 315 312 305 291 144 187 178 288 298 282 270 290 261 243 241 235 227 230 239 231 238 252 271 268 260 40 357 344 342 319 320 307 300 319 338 58 116 130 130
326 322 322 322 324 326 324 327 327 326 323 321 319 316 315 305 271 238 296 356 148 175 326 288 273 221 335 320 324 283 238 209 220 230 233 242 255 233 274 284 342 336 334 325 319 332 293 40 331 2 116 107 107 107
323 323 324 324 324 325 326 330 331 328 326 322 323 324 311 286 269 255 260 248 201 272 229 271 279 291 32 315 287 207 216 201 214 216 194 219 217 203 247 354 337 331 327 312 351 330 297 321 132 126 119 117 107 116
320 321 326 328 330 332 332 332 332 332 330 325 330 343 40 45 16 346 320 307 265 225 248 242 284 309 332 261 273 258 236 237 201 210 209 210 23 44 336 330 333 333 321 304 311 314 331 11 62 105 133 120 121 130
326 331 331 330 329 332 333 330 332 339 331 328 358 10 15 18 316 304 320 243 192 195 211 261 339 295 347 345 279 295 239 259 292 50 72 57 103 6 347 334 328 326 319 312 308 306 28 75 67 61 60 68 107 114
330 330 328 328 333 334 339 333 337 341 330 345 359 346 305 317 295 335 336 326 358 251 360 351 357 341 316 289 295 274 329 313 348 33 54 57 16 352 344 344 339 332 343 357 12 38 66 101 104 100 95 88 92 100
330 331 331 331 333 338 339 337 336 339 320 302 300 300 304 346 350 353 16 354 356 344 335 349 345 320 289 277 273 349 320 1 53 33 47 32 352 344 341 346 344 349 13 36 41 54 62 67 78 87 86 89 89 95
331 329 328 331 330 336 335 336 331 322 322 282 294 340 341 347 29 20 345 322 327 330 334 345 329 301 298 254 285 327 12 28 55 45 52 41 337 340 340 347 353 10 28 45 54 59 66 69 67 74 80 78 83 84
328 326 328 329 343 338 337 334 329 329 328 31 12 18 19 28 35 329 314 307 312 294 318 322 281 260 274 344 2 6 43 25 59 41 15 349 342 339 339 351 9 11 24 40 46 53 58 62 64 64 66 73 82 82
326 324 325 347 340 338 334 330 327 343 30 48 339 48 47 3 276 318 327 308 310 320 322 299 268 239 7 28 17 10 41 57 37 12 333 336 335 341 348 357 12 14 19 34 35 43 49 55 59 59 55 62 71 77
326 321 299 344 340 336 336 325 327 106 62 35 49 3 339 282 351 345 336 321 359 323 288 237 299 13 41 30 39 18 44 43 358 335 328 330 341 348 354 2 14 27 25 32 38 43 46 51 63 67 59 53 60 70
324 254 329 332 335 335 347 315 354 33 86 78 76 42 5 313 315 346 342 335 333 308 355 347 38 11 290 55 45 16 32 354 325 337 339 344 347 347 350 5 17 30 35 37 42 43 49 48 54 62 63 49 59 57
264 311 323 334 340 325 22 15 46 34 70 43 51 17 1 19 339 360 346 344 350 358 355 47 17 38 31 37 46 15 344 331 326 343 351 350 356 3 11 21 21 25 33 35 37 43 42 52 60 64 71 78 82 76
303 322 341 348 357 346 356 35 359 58 31 358 359 11 350 42 59 11 359 357 348 10 47 39 54 48 40 28 341 333 336 333 324 317 351 7 10 8 14 21 35 38 37 41 47 51 55 46 51 51 49 57 71 64
337 4 352 7 20 346 48 28 343 27 22 339 338 1 351 32 5 358 11 12 20 50 46 45 42 25 348 336 330 315 317 325 313 313 17 19 10 14 22 18 21 14 34 41 56 61 59 65 47 31 54 59 66 57
13 340 358 24 40 54 66 358 47 22 321 10 348 5 22 22 18 5 4 349 60 32 60 38 14 360 342 339 340 333 337 341 341 347 355 359 13 15 20 23 20 26 31 31 34 28 39 40 32 27 34 48 42 37
337 354 16 11 61 57 82 33 327 315 325 338 19 3 32 17 357 14 324 40 62 34 7 336 341 336 344 1 350 353 342 335 359 359 19 17 20 15 16 8 16 33 36 26 24 24 25 23 30 22 25 21 20 5
3 14 40 5 65 35 358 343 15 6 9 353 346 29 27 13 13 315 70 55 70 27 350 334 325 295 300 347 344 10 5 352 5 6 359 5 23 16 21 23 16 15 19 25 13 14 9 12 10 26 11 18 10 14
38 44 31 35 16 5 328 16 7 353 16 22 9 5 8 349 331 42 70 49 13 2 4 354 349 348 342 353 6 4 2 349 344 5 7 351 7 20 18 16 14 18 5 347 360 8 12 5 12 10 11 7 7 359
62 358 18 6 13 10 17 359 352 13 8 358 350 4 359 329 13 46 41 19 354 7 0 350 353 351 335 332 338 346 16 357 344 329 354 349 327 295 298 327 19 17 359 1 8 360 2 359 4 4 358 343 340 17
68 335 32 1 333 25 352 345 6 357 343 332 3 323 325 336 35 35 5 336 336 332 342 343 336 326 321 328 320 325 333 341 318 299 318 342 337 327 327 328 334 46 14 343 339 346 343 342 344 336 344 349 346 1
69 346 18 61 293 294 288 2 346 336 360 341 343 337 347 46 21 4 358 50 316 342 327 314 303 296 298 308 311 313 313 307 277 290 293 284 275 270 306 317 323 334 318 326 308 309 313 320 326 319 322 316 310 306
99 25 36 336 357 336 225 356 4 14 305 273 268 327 86 16 341 10 347 22 329 320 305 294 283 285 294 298 302 304 303 304 296 282 258 249 240 239 236 257 285 298 327 305 304 314 284 287 293 278 304 303 307 311
101 67 243 331 306 234 217 195 226 133 21 244 270 286 305 282 327 312 343 338 326 307 312 329 331 331 302 297 287 285 285 292 309 310 312 307 309 223 49 327 306 296 289 288 302 318 298 279 338 28 329 305 309 302
13 347 311 87 213 276 105 5 12 31 256 268 304 297 259 254 257 314 291 303 328 333 323 301 296 316 316 322 312 309 273 243 236 255 283 289 299 322 308 296 288 282 279 278 284 295 311 311 333 358 345 312 301 296
355 261 267 245 262 91 55 348 292 249 292 272 360 264 296 321 304 209 239 251 296 291 311 333 326 288 306 320 316 312 314 256 241 257 262 274 275 276 276 273 268 264 260 263 263 264 262 278 258 273 286 287 291 309
326 47 329 294 274 73 181 343 329 276 154 245 156 232 267 258 279 232 155 187 286 346 343 346 325 324 322 308 285 264 282 293 298 293 286 270 265 263 263 262 259 250 250 251 252 246 235 233 244 245 264 273 273 268
84 218 280 306 303 307 35 336 351 333 173 292 106 321 327 309 273 313 107 226 328 320 319 318 301 301 304 302 284 288 306 289 291 297 303 304 300 293 285 260 237 235 239 239 241 238 234 229 234 242 248 252 261 264